Temperature
14 14 14 14 14 14 14 14 14 13 13 13 13 12 12 12 12 12 12 11 11 11 10 10 10 10 10 9 9 9 9 9 9 9 9 9 9 9 9 9 9 9 8
13 13 13 13 13 13 13 14 13 13 13 13 12 12 12 12 12 12 11 11 11 11 10 10 10 10 9 9 9 9 9 9 9 9 9 9 9 9 9 8 8 8 8
12 13 13 13 13 13 13 13 13 13 12 12 12 12 12 12 12 11 11 11 11 10 10 10 10 10 9 9 9 9 9 9 9 9 9 9 9 9 8 8 8 8 8
12 12 12 12 13 13 13 12 12 12 12 12 12 12 12 11 11 11 11 11 11 10 10 10 10 10 9 9 9 9 9 9 9 9 9 9 8 8 8 8 8 8 8
11 11 12 12 12 12 12 12 12 12 12 12 11 11 11 11 11 11 11 11 11 10 10 10 10 10 9 9 9 9 9 9 9 8 8 8 8 8 8 8 8 8 8
11 11 11 11 12 12 12 12 12 11 11 11 11 11 11 11 11 11 11 10 10 10 10 10 10 10 10 9 9 9 9 9 9 8 8 8 8 8 8 8 8 8 8
10 10 10 10 11 11 11 11 11 11 10 10 10 10 10 10 10 10 10 10 10 10 10 10 10 10 10 9 9 9 9 9 9 8 8 8 8 8 8 8 8 8 7
9 9 10 10 10 11 11 11 11 10 10 10 10 9 9 9 10 10 10 10 10 10 10 10 10 10 10 9 9 9 9 9 9 8 8 8 8 8 8 8 8 7 7
9 9 9 9 10 10 10 11 10 10 10 10 10 10 9 9 10 10 10 10 10 10 10 10 10 10 10 9 9 9 9 9 9 8 8 8 8 8 8 8 7 7 7
9 9 9 9 9 10 10 10 10 10 10 9 9 10 11 11 10 10 10 10 10 10 10 10 10 10 10 9 9 9 9 9 9 8 8 8 8 8 8 7 7 7 7
8 9 9 9 9 9 10 10 10 10 10 10 10 10 10 11 11 11 10 10 10 10 10 10 10 10 10 9 9 9 9 9 9 8 8 8 8 7 7 7 7 7 6
8 8 8 9 9 9 9 10 10 10 10 10 10 10 10 10 11 11 11 10 10 10 10 10 10 10 10 10 9 9 9 9 8 8 8 8 8 7 7 7 6 6 6
7 8 8 8 9 9 9 9 10 10 10 10 10 10 10 10 11 11 12 11 10 10 10 10 10 10 10 10 9 9 9 9 8 8 8 8 8 7 7 7 6 6 5
7 8 8 8 8 9 9 9 9 10 10 10 10 10 10 10 11 11 11 11 10 9 10 10 10 10 10 10 9 9 9 9 8 8 8 8 7 7 7 7 6 6 5
7 7 8 8 8 8 9 9 9 9 9 9 10 10 10 10 10 10 11 11 11 9 9 10 10 10 10 10 9 9 9 8 8 8 8 7 7 7 7 6 6 5 5
7 7 7 8 8 8 8 9 9 9 9 9 9 9 10 10 10 10 10 10 11 11 10 10 10 10 10 9 9 9 8 8 8 8 7 7 7 7 6 6 5 5 5
6 7 7 7 8 8 8 8 8 9 9 9 9 9 10 10 10 10 10 10 10 10 11 10 10 10 10 9 9 9 8 8 8 8 7 7 7 6 6 6 5 5 5
6 6 7 7 7 8 8 8 8 8 8 9 9 9 9 9 9 10 10 10 10 10 10 10 10 9 9 9 9 8 8 8 8 7 7 7 6 6 6 5 5 5 4
6 6 6 6 7 7 8 8 8 8 8 9 9 9 9 9 9 9 10 10 10 10 10 10 10 9 9 9 8 8 8 7 7 7 7 6 6 6 5 5 5 4 4
6 6 6 6 7 7 7 8 8 8 8 9 9 9 9 10 10 10 10 10 10 10 10 10 9 9 9 9 8 8 8 7 7 7 6 6 6 5 5 5 4 4 3
5 6 6 6 6 7 7 8 8 8 8 9 9 9 9 10 10 10 10 10 10 10 9 9 9 9 9 9 8 8 8 7 7 7 6 6 5 5 5 4 4 3 3
5 6 6 6 6 6 7 8 8 8 8 9 9 9 9 9 9 9 9 10 10 10 10 9 9 9 9 9 8 8 7 7 6 6 6 6 5 5 4 4 3 3 3
5 5 5 6 6 6 7 8 8 8 8 9 9 9 9 9 9 9 9 9 10 10 10 10 10 10 9 9 8 8 7 7 6 6 6 5 5 5 4 4 3 2 2
4 5 5 5 6 7 7 7 8 8 8 9 9 9 9 9 9 9 9 9 9 9 9 9 9 9 9 8 8 7 7 6 6 5 5 5 5 4 4 3 3 2 2
4 4 5 5 5 6 7 7 8 8 8 9 9 9 9 9 9 9 9 9 9 9 9 9 9 8 8 8 7 7 6 6 6 5 5 4 4 4 4 3 2 2 1
4 4 4 5 5 6 7 7 8 8 8 8 8 9 9 9 9 9 9 9 9 9 9 8 8 8 7 7 7 6 6 6 5 5 4 4 3 3 3 3 2 2 1
Wind_Speed
6 5 5 6 6 7 8 7 7 9 9 10 10 11 10 10 10 10 10 12 13 12 12 12 11 10 9 9 8 7 6 5 5 4 4 4 4 4 5 5 6 7 8
7 6 6 5 6 8 9 8 9 8 8 8 9 10 10 10 10 10 10 11 12 12 12 11 11 11 10 9 8 7 7 7 6 5 5 5 5 6 6 7 8 8 9
8 8 7 6 6 8 9 8 8 7 7 7 9 9 8 9 9 10 10 10 10 11 11 12 11 11 10 10 9 8 8 7 7 6 6 7 7 7 8 9 9 9 10
9 8 8 8 7 7 8 9 8 8 8 8 8 8 7 7 8 9 9 9 9 9 11 12 11 11 11 10 10 9 9 8 8 8 8 8 8 9 9 10 10 10 11
10 8 8 8 8 7 8 9 8 7 8 8 8 7 7 7 7 8 8 9 10 10 10 11 11 11 11 11 11 10 10 10 9 9 9 9 9 9 10 10 10 10 11
10 9 8 9 9 7 8 9 10 8 7 8 7 6 5 6 6 7 8 8 9 10 11 10 10 10 11 11 11 11 10 10 10 10 10 9 10 10 10 10 10 10 11
10 9 8 9 9 9 11 11 8 10 7 6 5 3 1 3 6 6 6 6 7 9 10 10 10 10 10 11 11 11 11 11 11 10 10 10 10 10 11 10 10 11 12
11 10 10 10 10 9 11 12 10 8 7 8 6 6 4 3 5 6 6 7 8 6 7 9 10 10 10 9 10 11 12 12 11 11 10 10 11 11 10 10 10 11 12
12 12 11 11 11 11 12 13 13 12 10 8 7 6 6 6 3 3 6 7 7 6 7 7 9 11 11 11 10 11 12 12 11 11 11 10 10 10 10 10 10 11 12
12 12 11 11 11 11 12 14 13 10 13 11 7 4 3 5 5 3 3 5 7 8 8 7 7 9 11 10 10 11 11 11 10 10 10 10 10 10 10 10 10 11 12
12 12 11 10 11 11 12 13 13 12 12 12 9 5 3 2 3 4 5 5 4 6 7 7 6 7 10 10 10 10 10 10 9 9 8 8 9 9 10 10 10 11 11
9 12 11 10 11 10 12 12 13 15 13 12 10 8 7 6 6 5 5 6 5 4 5 5 6 7 8 10 10 10 10 9 8 8 7 7 8 8 9 9 9 10 11
8 11 11 10 10 10 11 11 12 15 15 15 13 10 8 7 5 5 5 5 3 1 2 3 5 6 7 9 9 11 9 9 8 7 6 6 6 7 7 8 9 9 10
8 10 11 11 12 12 12 12 11 13 14 15 14 13 9 7 6 6 6 6 4 2 2 4 3 6 6 8 10 10 8 8 8 7 6 5 5 6 6 7 8 9 10
7 9 11 12 12 13 13 13 11 13 13 14 13 13 10 8 7 6 6 7 7 5 5 5 4 4 6 7 9 9 7 7 7 6 5 5 5 5 5 6 7 8 9
7 9 10 11 12 12 13 13 12 12 13 13 11 13 11 8 8 7 7 6 5 5 5 4 4 3 5 5 8 8 7 6 6 5 5 4 4 5 5 6 6 7 8
8 9 9 10 12 12 13 13 13 14 14 14 13 14 13 11 10 8 7 7 6 5 5 3 2 2 4 5 4 5 5 4 3 5 4 4 4 4 4 5 6 7 8
8 8 9 10 10 11 13 14 15 15 15 16 15 14 14 12 12 9 8 8 7 6 5 5 3 3 3 5 5 4 3 3 2 3 4 4 4 4 4 4 5 6 7
9 9 8 9 10 10 12 14 14 15 15 16 16 16 15 14 13 10 9 9 7 6 5 5 4 3 2 3 3 3 2 1 1 2 3 3 4 3 3 4 4 5 7
8 8 8 8 9 10 11 12 14 14 14 15 15 15 15 16 15 13 11 10 8 7 6 6 5 4 3 3 3 3 2 1 1 0 1 2 2 1 2 3 4 5 7
7 7 7 6 7 8 9 11 13 14 14 14 14 14 14 15 16 14 11 11 11 8 7 7 6 4 3 4 4 3 3 1 1 0 0 1 0 0 1 3 4 5 6
5 5 5 6 6 6 7 9 12 12 13 15 14 13 13 14 15 15 14 14 14 12 10 8 5 6 5 5 4 4 3 2 2 1 1 1 0 1 1 2 4 5 6
3 3 4 5 5 6 6 8 10 11 12 14 14 13 11 12 15 12 12 13 12 12 13 10 9 7 7 7 7 5 4 3 3 2 1 1 0 1 2 3 5 5 5
2 2 3 3 3 4 5 7 8 9 9 12 13 14 13 13 13 14 12 11 8 7 9 8 8 8 7 8 8 6 5 3 2 1 1 1 1 1 1 3 4 3 5
3 3 2 2 2 3 5 6 5 5 8 10 10 12 13 14 17 18 15 13 10 7 7 11 11 10 11 11 10 7 5 3 1 1 1 1 0 1 1 2 3 5 6
4 3 2 2 2 3 3 4 4 4 7 8 8 10 13 15 19 20 15 14 13 10 9 9 8 9 8 8 9 6 6 4 2 2 2 2 1 0 1 1 2 4 5
Wind_Direction
205 200 203 197 194 187 182 177 175 175 174 173 174 173 174 176 179 184 193 199 198 198 193 191 189 191 192 192 192 196 203 211 219 225 235 251 264 275 284 292 298 303 306
208 202 203 205 199 191 187 183 181 178 181 178 180 181 180 179 182 186 192 200 200 199 200 200 200 202 202 201 203 209 218 226 230 237 245 255 265 272 277 284 291 296 300
212 204 202 204 205 193 187 182 181 177 178 181 183 183 183 182 183 189 193 196 200 202 205 208 210 211 211 213 213 217 223 233 239 248 254 261 267 273 279 285 289 293 298
215 206 206 205 201 195 189 187 184 185 181 183 185 186 185 185 187 190 193 196 197 203 210 214 218 220 220 224 224 224 228 236 244 252 258 264 266 272 278 285 290 293 298
218 211 211 206 194 202 197 192 188 186 185 183 185 185 186 190 191 191 195 197 199 202 208 215 218 223 227 229 228 231 236 240 247 254 259 263 266 271 278 285 291 293 298
220 213 215 206 195 203 202 192 187 186 187 179 179 183 187 194 193 196 199 199 201 203 206 211 216 221 226 232 234 238 242 246 251 256 262 265 268 273 280 285 290 295 298
218 211 219 209 202 206 208 194 188 181 184 168 160 165 188 201 206 205 200 198 203 206 205 209 212 217 224 230 233 239 246 252 254 256 261 267 271 276 281 284 289 294 298
217 215 216 214 208 208 209 198 183 182 184 178 172 160 173 215 225 211 203 203 205 200 205 210 210 213 218 225 232 238 245 252 256 259 263 269 274 277 279 282 288 295 301
218 212 215 218 214 207 208 201 191 185 185 190 191 177 172 198 193 207 209 207 203 201 206 208 211 215 218 221 228 236 242 249 254 258 264 269 276 280 280 286 294 300 305
219 216 212 215 217 214 206 202 198 192 183 188 196 209 192 155 160 177 209 210 207 208 208 206 210 215 217 218 224 231 236 241 250 259 265 270 275 282 288 293 297 302 306
221 217 212 212 216 217 209 202 199 194 192 191 190 185 182 169 155 156 184 196 209 216 211 208 206 211 215 215 218 221 225 233 244 254 263 271 278 283 290 296 300 304 307
225 216 213 211 214 216 211 207 203 198 197 194 193 190 185 180 179 166 175 186 200 212 207 208 206 208 209 208 209 213 218 226 235 245 257 270 279 285 292 298 303 308 310
228 217 213 212 214 216 215 210 208 204 198 195 196 197 197 194 176 164 156 167 177 194 203 216 211 203 203 199 204 207 213 220 227 239 252 263 274 283 291 298 305 309 310
231 219 214 212 214 213 215 211 209 210 202 199 198 195 194 193 181 174 164 159 161 188 211 223 203 200 195 190 197 197 204 212 222 233 240 252 266 277 287 294 301 306 310
237 222 218 215 213 213 212 209 209 209 205 201 199 196 195 191 183 179 170 166 165 183 211 212 198 192 184 181 188 189 193 207 218 226 231 244 261 273 282 292 301 306 309
245 229 222 217 213 213 210 208 207 205 206 203 199 196 195 188 181 178 178 174 168 171 197 202 196 173 173 173 183 178 184 194 208 217 225 243 258 267 279 291 298 305 309
244 237 228 221 216 215 208 203 205 202 206 204 200 197 194 182 183 182 180 174 172 164 183 190 161 146 160 160 154 157 167 171 199 213 223 234 246 259 275 287 295 301 308
245 243 233 224 221 217 205 199 201 201 205 204 199 193 191 185 184 182 184 182 180 174 173 181 169 154 149 158 151 154 150 161 182 207 218 229 245 257 270 280 289 300 307
243 240 233 227 221 212 203 201 200 201 205 204 196 192 190 183 186 184 185 185 181 176 170 166 162 145 127 133 135 133 131 135 170 206 222 230 239 253 269 274 285 300 308
242 235 230 229 218 208 205 204 201 200 204 202 194 191 189 186 187 183 188 186 176 170 161 155 151 145 136 132 138 149 164 176 190 128 245 234 233 264 273 275 291 302 308
247 239 228 228 218 206 205 204 200 199 201 197 191 191 189 185 183 182 186 181 172 170 163 159 157 152 158 157 172 161 176 170 203 140 255 247 207 268 300 291 295 300 310
253 243 231 222 219 220 217 211 200 197 199 192 187 187 182 175 174 174 174 170 169 171 172 168 169 172 178 172 153 152 147 146 226 195 181 259 167 251 266 274 295 306 315
261 246 237 231 229 225 217 206 199 196 195 189 184 181 178 175 171 171 167 162 163 164 165 167 169 176 169 173 161 157 165 168 189 177 152 232 246 257 271 297 308 312 324
286 263 257 261 255 232 209 199 196 193 188 183 180 177 174 172 173 167 160 158 156 159 161 157 162 164 160 160 162 161 157 130 93 98 130 194 264 269 307 320 329 336 339
306 283 270 259 272 252 197 185 182 187 176 171 171 171 169 170 166 159 158 154 146 140 127 128 127 128 131 137 138 128 130 127 148 198 148 142 226 307 304 300 333 344 341
305 300 286 263 263 255 199 170 171 177 164 163 160 163 164 163 163 162 162 158 157 156 141 127 117 111 115 125 130 142 154 147 145 185 184 143 133 38 317 304 321 345 350
Height
1460 1462 1465 1468 1470 1473 1475 1478 1481 1484 1486 1489 1492 1494 1497 1499 1502 1504 1506 1508 1510 1512 1513 1514 1515 1516 1516 1517 1517 1518 1518 1518 1518 1518 1518 1517 1517 1516 1516 1515 1514 1513 1512
1454 1456 1459 1461 1465 1468 1471 1473 1476 1479 1482 1485 1488 1491 1493 1496 1498 1501 1503 1505 1507 1509 1510 1512 1513 1514 1515 1515 1516 1516 1516 1516 1516 1516 1516 1515 1515 1515 1514 1513 1512 1511 1510
1447 1449 1452 1455 1459 1462 1465 1468 1471 1474 1477 1480 1483 1486 1489 1492 1495 1497 1500 1502 1504 1506 1507 1509 1510 1511 1512 1513 1513 1514 1514 1514 1514 1514 1514 1513 1513 1512 1512 1511 1510 1509 1507
1441 1443 1445 1448 1452 1456 1459 1462 1465 1468 1472 1475 1478 1482 1485 1488 1491 1493 1496 1498 1500 1502 1504 1506 1507 1509 1510 1510 1511 1511 1512 1512 1512 1512 1511 1511 1510 1510 1509 1508 1507 1506 1504
1434 1436 1438 1441 1445 1449 1452 1455 1459 1463 1466 1470 1474 1478 1481 1484 1487 1489 1491 1494 1496 1499 1501 1503 1504 1506 1506 1507 1508 1509 1509 1509 1509 1509 1509 1508 1508 1507 1506 1505 1504 1503 1501
1426 1428 1431 1434 1438 1441 1445 1448 1452 1457 1461 1465 1469 1473 1476 1480 1482 1484 1487 1490 1492 1495 1497 1499 1501 1502 1503 1504 1505 1506 1506 1506 1506 1506 1506 1505 1505 1504 1503 1502 1501 1499 1498
1419 1422 1424 1427 1430 1434 1438 1441 1445 1450 1455 1461 1465 1468 1472 1475 1477 1480 1482 1485 1487 1490 1493 1495 1497 1498 1500 1501 1502 1502 1503 1503 1503 1503 1503 1502 1502 1501 1500 1499 1497 1496 1494
1411 1414 1416 1420 1423 1426 1430 1435 1438 1443 1448 1454 1458 1462 1466 1470 1471 1474 1477 1479 1482 1485 1488 1491 1493 1495 1496 1497 1498 1499 1500 1500 1500 1500 1500 1499 1498 1497 1496 1495 1494 1492 1490
1404 1407 1409 1413 1416 1419 1422 1426 1430 1435 1440 1447 1453 1455 1458 1459 1464 1468 1470 1474 1477 1480 1483 1486 1488 1491 1493 1494 1494 1495 1496 1496 1496 1496 1496 1496 1495 1494 1493 1491 1490 1488 1486
1396 1399 1402 1405 1409 1412 1414 1418 1423 1428 1433 1438 1445 1448 1451 1451 1456 1460 1465 1468 1472 1475 1478 1481 1484 1486 1488 1490 1490 1492 1492 1493 1493 1493 1492 1492 1491 1490 1489 1488 1486 1484 1482
1388 1391 1394 1398 1401 1405 1407 1411 1415 1421 1425 1430 1435 1440 1444 1446 1449 1452 1456 1462 1466 1469 1473 1476 1479 1481 1484 1485 1486 1488 1488 1489 1489 1489 1488 1488 1487 1486 1485 1483 1481 1479 1477
1380 1383 1386 1390 1393 1398 1400 1404 1408 1414 1418 1423 1428 1432 1436 1439 1442 1445 1449 1454 1460 1464 1468 1471 1473 1476 1479 1481 1482 1483 1484 1485 1485 1485 1484 1484 1483 1482 1480 1479 1477 1475 1473
1372 1375 1378 1382 1386 1390 1394 1398 1402 1407 1411 1415 1420 1425 1431 1434 1438 1441 1445 1449 1454 1459 1462 1466 1468 1471 1474 1476 1477 1479 1480 1480 1481 1481 1480 1479 1479 1477 1476 1474 1472 1470 1468
1365 1367 1371 1375 1379 1382 1386 1391 1395 1400 1404 1408 1413 1418 1424 1429 1433 1436 1440 1444 1449 1454 1457 1459 1462 1465 1468 1471 1473 1474 1475 1476 1476 1476 1476 1475 1474 1473 1471 1470 1468 1466 1463
1359 1360 1364 1367 1370 1374 1378 1382 1387 1392 1396 1401 1406 1411 1417 1422 1428 1431 1435 1439 1444 1447 1451 1454 1457 1460 1463 1466 1468 1470 1470 1471 1472 1472 1472 1471 1470 1468 1467 1465 1463 1461 1459
1352 1354 1355 1358 1362 1366 1369 1374 1379 1384 1389 1393 1399 1404 1410 1416 1421 1426 1430 1434 1438 1442 1445 1448 1452 1455 1458 1461 1463 1465 1466 1467 1468 1468 1467 1466 1465 1464 1462 1460 1459 1456 1454
1346 1348 1349 1351 1354 1357 1360 1365 1370 1377 1381 1387 1392 1398 1403 1409 1415 1420 1424 1428 1433 1437 1440 1444 1447 1451 1454 1456 1458 1460 1462 1463 1463 1463 1463 1462 1461 1460 1458 1456 1454 1452 1450
1341 1342 1344 1344 1346 1348 1352 1357 1363 1369 1374 1379 1385 1390 1396 1403 1408 1414 1419 1423 1427 1432 1435 1438 1443 1446 1449 1452 1454 1456 1457 1458 1459 1459 1459 1458 1457 1455 1454 1452 1450 1448 1446
1336 1337 1338 1338 1340 1342 1346 1351 1356 1362 1367 1373 1378 1383 1390 1396 1402 1407 1413 1418 1422 1427 1431 1434 1437 1441 1444 1447 1449 1451 1453 1454 1454 1454 1454 1454 1453 1451 1450 1448 1446 1444 1442
1329 1330 1332 1333 1334 1337 1341 1346 1351 1355 1361 1367 1372 1377 1383 1389 1395 1401 1407 1412 1417 1422 1426 1429 1433 1436 1439 1442 1445 1446 1448 1450 1450 1450 1450 1450 1449 1447 1446 1444 1443 1440 1438
1324 1326 1327 1328 1330 1332 1336 1339 1344 1349 1355 1360 1366 1372 1378 1383 1389 1395 1401 1407 1411 1416 1420 1424 1427 1431 1434 1437 1439 1441 1443 1445 1445 1446 1446 1446 1445 1443 1442 1440 1439 1437 1434
1320 1321 1322 1323 1325 1327 1330 1333 1338 1343 1349 1354 1360 1367 1373 1378 1384 1391 1397 1402 1407 1410 1414 1418 1422 1425 1429 1432 1435 1437 1439 1440 1441 1442 1442 1442 1441 1439 1438 1437 1435 1433 1431
1317 1317 1318 1319 1320 1321 1324 1328 1333 1339 1344 1349 1355 1360 1366 1372 1379 1386 1392 1398 1402 1407 1411 1415 1418 1421 1425 1428 1431 1434 1436 1437 1437 1438 1438 1437 1437 1436 1435 1433 1431 1429 1427
1314 1314 1315 1316 1317 1318 1320 1324 1329 1334 1339 1344 1350 1355 1361 1367 1373 1380 1386 1392 1397 1402 1407 1411 1415 1418 1422 1426 1428 1430 1432 1433 1434 1434 1434 1433 1433 1432 1431 1430 1428 1426 1424
1312 1312 1313 1314 1315 1315 1318 1322 1326 1330 1335 1340 1346 1352 1358 1363 1369 1376 1382 1387 1393 1398 1403 1408 1412 1415 1419 1422 1424 1427 1428 1429 1430 1430 1431 1430 1429 1428 1428 1427 1425 1424 1421
1311 1311 1312 1312 1313 1314 1317 1320 1324 1327 1331 1337 1343 1349 1354 1359 1365 1371 1377 1382 1388 1393 1399 1403 1408 1412 1415 1418 1421 1423 1425 1426 1426 1427 1427 1427 1426 1425 1424 1424 1423 1421 1418